{"data":{"norad_id":29268,"epoch":"2026-09-19T23:54:49.239072Z","epoch_age_seconds":57952,"freshness":"FRESH","line1":"1 29268U 06031A   26262.99640323  .00000320  00000+0  68397-4 0  9992","line2":"2 29268  97.8344  82.8854 0015370 128.7581  30.9891 14.64707381 75358","mean_motion":14.64707381,"eccentricity":0.001537,"inclination_deg":97.8344,"raan_deg":82.8854,"arg_perigee_deg":128.7581,"mean_anomaly_deg":30.9891,"bstar":6.8397e-5,"rev_number":7535,"period_min":98.313152420715,"perigee_km":667.16970031679,"apogee_km":688.86031158308,"semimajor_km":7056.1520059499,"source":"CELESTRAK","updated_at":"2026-09-20T09:00:33.885772Z"}}